Regional Weather Roundup
Issued by NWS New Orleans/Baton Rouge, LA

Home | Current Version | Previous Version | Graphics & Text | Print | Product List | Glossary On
Versions: 1 2 3 4 5 6 7 8 9 10 11 12 13 14 15 16 17 18 19 20 21 22 23 24 25 26 27 28 29 30 31 32 33 34 35 36 37 38 39 40 41 42 43 44 45 46 47 48 49 50
118
ASUS44 KLIX 260001
RWRLIX
NEW ORLEANS REGIONAL WEATHER ROUNDUP
NATIONAL WEATHER SERVICE NEW ORLEANS LA
600 PM CST TUE NOV 25 2014

NOTE: "FAIR" INDICATES FEW OR NO CLOUDS BELOW 12,000 FEET WITH NO
      SIGNIFICANT WEATHER AND/OR OBSTRUCTIONS TO VISIBILITY.
      SKY/WX - SKY CONDITION AND SIGNIFICANT WEATHER.
      TMP - AIR TEMPERATURE.     DP    - DEWPOINT TEMPERATURE.
      RH  - RELATIVE HUMIDITY.   PRES  - PRESSURE.
      HI  - HEAT INDEX.          WCI   - WIND CHILL INDEX.

*  THESE STATIONS ARE NOT NWS OR FAA STATIONS AND ARE NOT UNDER
   NWS QUALITY CONTROL.

LAZ038-040-048-061>063-065>067-069-260100-
SOUTHEAST LOUISIANA

CITY           SKY/WX    TMP DP  RH WIND       PRES   REMARKS
N.O. AUDUBON     N/A     55  36  48 MISG        N/A
6HR MIN TEMP:  54; 6HR MAX TEMP:  58;

N.O. INTL ARPT CLOUDY    54  33  45 NW13G20   30.17R
6HR MIN TEMP:  54; 6HR MAX TEMP:  58; 6HR PCP: TRACE;

N.O. LAKEFRONT CLOUDY    55  35  47 NW18      30.17R
6HR MIN TEMP:  55; 6HR MAX TEMP:  58;

N.O. DOWNTOWN* MOCLDY    55  30  38 NW6       30.17R
6HR MIN TEMP:  55; 6HR MAX TEMP:  57;

SLIDELL        CLOUDY    51  36  56 VRB5      30.17R
6HR MIN TEMP:  51; 6HR MAX TEMP:  56; 6HR PCP: TRACE;

BATON ROUGE    MOCLDY    49  31  49 NW3       30.22R
6HR MIN TEMP:  49; 6HR MAX TEMP:  57;

BOOTHVILLE     CLOUDY    55  38  52 N13       30.15R
6HR MIN TEMP:  55; 6HR MAX TEMP:  58;

BELLE CHASSE   CLOUDY    55  32  41 N7        30.15R
6HR MIN TEMP:  54; 6HR MAX TEMP:  58;

BOGALUSA*        N/A     51  33  50 N7        30.19R
6HR MIN TEMP:  51; 6HR MAX TEMP:  56;

NEW ROADS*     NOT AVBL
GONZALES*      NOT AVBL
HAMMOND*       NOT AVBL
HOUMA*         NOT AVBL
PORT FOURCHON* MOCLDY    55  37  50 NW10      30.20R

$$

MSZ070-080>082-260100-
SOUTHERN MISSISSIPPI

CITY           SKY/WX    TMP DP  RH WIND       PRES   REMARKS
MCCOMB         CLOUDY    47  32  56 NW8       30.19R
6HR MIN TEMP:  47; 6HR MAX TEMP:  55;

GULFPORT       CLOUDY    52  36  54 NW5       30.15R
6HR MIN TEMP:  52; 6HR MAX TEMP:  60;

BILOXI         CLOUDY    54  35  48 VRB6      30.16R
6HR MIN TEMP:  54; 6HR MAX TEMP:  61;

PASCAGOULA     CLOUDY    54  35  48 NW6       30.13R
6HR MIN TEMP:  54; 6HR MAX TEMP:  63;

STENNIS ARPT*  MOCLDY    50  36  57 CALM      30.14S

$$

COASTAL OBSERVATIONS
LAKE AND NEARSHORE STATIONS

STATION/POSITION TIME  TEMP    WIND        PRES    WAVE
                       AIR SEA DIR/SP/G            HT/PER
                 (UTC) (F)     (DEG/KT/KT) (MB)    (FT/S)
PASCAGOULA       2300   55     350/  6/ 11 1019.2
WAVELAND YACHT   2300   53     340/ 10/ 13 1019.4
GRAND ISLE       2300   56 61   10/ 10/ 15 1020.7
SOUTHWEST PASS   2300   58                 1020.9
NEW CANAL        2300   55 55  330/  4/ 12 1021.6
SHELL BEACH      2300   54 54  360/ 11/ 13 1020.5

OFFSHORE STATIONS

STATION/POSITION TIME  TEMP    WIND        PRES    WAVE
                       AIR SEA DIR/SP/G            HT/PER
                 (UTC) (F)     (DEG/KT/KT) (MB)    (FT/S)

$$




USA.gov is the U.S. government's official web portal to all federal, state and local government web resources and services.